Weather History for KFYV - January, 2013

Change the Weather History Date:

Tuesday, January 22, 2013

  Actual Average Record
Temperature  
Mean Temperature 31 °F 36 °F  
Max Temperature 46 °F 47 °F 73 °F (1967)
Min Temperature 15 °F 25 °F -6 °F (1959)
Degree Days  
Heating Degree Days 34 29  
Month to date heating degree days 641 656  
Since 1 July heating degree days 2159 2339  
Moisture  
Dew Point 19 °F    
Average Humidity 65    
Maximum Humidity 92    
Minimum Humidity 37    
Precipitation  
Precipitation 0.00 in 0.09 in - ()
Month to date precipitation 0.34 2.04  
Year to date precipitation 0.34 2.04  
Sea Level Pressure  
Sea Level Pressure 30.30 in    
Wind  
Wind Speed 3 mph (South)    
Max Wind Speed 15 mph    
Max Gust Speed 18 mph    
Visibility 10 miles    
Events      
T = Trace of Precipitation, MM = Missing Value Source: NWS Daily Summary

Daily Weather History Graph

Daily Weather History Graph

Search for Another Location

Airport or City:

Trip Planner

Search our weather history database for the weather conditions in past years. The results will help you decide how hot, cold, wet, or windy it might be!

Date:

Astronomy

Jan. 22, 2013 Rise Set
Actual Time 7:23 AM CST 5:33 PM CST
Civil Twilight 6:56 AM CST 6:00 PM CST
Nautical Twilight 6:25 AM CST 6:32 PM CST
Astronomical Twilight 5:54 AM CST 7:02 PM CST
Moon 1:58 PM CST (1/22) 3:44 AM CST (1/22)
Length of Visible Light 11h 04m
Length of Day
10h 09m
Waxing Gibbous, 83% of the Moon is Illuminated
Jan 22
Waxing Gibbous
Jan 26
Full
Feb 3
Last Quarter
Feb 10
New
Feb 17
First Quarter

Hourly Weather History & Observations

Time (CST) Temp. Windchill Dew Point Humidity Pressure Visibility Wind Dir Wind Speed Gust Speed Precip Events Conditions
12:53 AM 24.1 °F - 14.0 °F 65% 30.33 in 10.0 mi Calm Calm - N/A   Clear
1:53 AM 23.0 °F - 15.1 °F 72% 30.32 in 10.0 mi Calm Calm - N/A   Clear
2:53 AM 21.9 °F - 15.1 °F 75% 30.32 in 10.0 mi Calm Calm - N/A   Clear
3:53 AM 18.0 °F 12.7 °F 14.0 °F 84% 30.31 in 10.0 mi South 3.5 mph - N/A   Clear
4:53 AM 17.1 °F - 14.0 °F 88% 30.33 in 10.0 mi Calm Calm - N/A   Clear
5:53 AM 19.0 °F - 14.0 °F 81% 30.32 in 10.0 mi Calm Calm - N/A   Clear
6:53 AM 16.0 °F 10.4 °F 12.9 °F 88% 30.34 in 10.0 mi South 3.5 mph - N/A   Clear
7:53 AM 18.0 °F 12.7 °F 15.1 °F 88% 30.35 in 10.0 mi South 3.5 mph - N/A   Clear
8:53 AM 23.0 °F - 18.0 °F 81% 30.35 in 10.0 mi Calm Calm - N/A   Clear
9:53 AM 28.9 °F - 21.0 °F 72% 30.35 in 10.0 mi Calm Calm - N/A   Overcast
10:53 AM 36.0 °F 28.0 °F 19.9 °F 52% 30.31 in 10.0 mi South 11.5 mph - N/A   Overcast
11:53 AM 37.9 °F 30.9 °F 19.9 °F 48% 30.33 in 10.0 mi South 10.4 mph - N/A   Mostly Cloudy
12:53 PM 42.1 °F - 21.0 °F 43% 30.30 in 10.0 mi Calm Calm - N/A   Clear
1:53 PM 43.0 °F 40.3 °F 21.9 °F 43% 30.27 in 10.0 mi Variable 4.6 mph - N/A   Clear
2:53 PM 45.0 °F 40.6 °F 23.0 °F 42% 30.26 in 10.0 mi SSW 8.1 mph - N/A   Clear
3:53 PM 46.0 °F 41.0 °F 21.9 °F 39% 30.26 in 10.0 mi SSW 10.4 mph - N/A   Partly Cloudy
4:53 PM 43.0 °F 37.7 °F 21.9 °F 43% 30.26 in 10.0 mi South 9.2 mph - N/A   Clear
5:53 PM 36.0 °F 31.1 °F 21.9 °F 57% 30.26 in 10.0 mi South 5.8 mph - N/A   Clear
6:53 PM 30.9 °F - 21.0 °F 67% 30.27 in 10.0 mi Calm Calm - N/A   Clear
7:53 PM 27.0 °F - 19.9 °F 75% 30.27 in 10.0 mi Calm Calm - N/A   Clear
8:53 PM 27.0 °F - 19.9 °F 75% 30.28 in 10.0 mi Calm Calm - N/A   Clear
9:53 PM 25.0 °F - 19.0 °F 78% 30.29 in 10.0 mi Calm Calm - N/A   Clear
10:53 PM 30.9 °F 26.2 °F 21.0 °F 67% 30.28 in 10.0 mi South 4.6 mph - N/A   Clear
11:53 PM 23.0 °F - 19.0 °F 85% 30.29 in 10.0 mi Calm Calm - N/A   Clear